When you browse on this site, cookies collect data to enhance your experience and personalize the content and advertising you see.
Visit our Privacy Policy to learn more. By continuing to use the site, you agree to this use of cookies and data.

Stündliche Wetter Çayıralan

Heute, 16 Juli, Donnerstag

Zeit Temperatur Niederschläge Wind Luftdruck Luftfeuchtigkeit
00:00 +20°C° 0 mm 2 m/S 646 mmHg 50%
01:00 +19°C° 0 mm 2 m/S 645 mmHg 52%
02:00 +19°C° 0 mm 2 m/S 645 mmHg 54%
03:00 +19°C° 0 mm 2 m/S 645 mmHg 55%
04:00 +19°C° 0 mm 2 m/S 645 mmHg 56%
05:00 +18°C° 0 mm 2 m/S 645 mmHg 57%
06:00 +21°C° 0 mm 2 m/S 645 mmHg 51%
07:00 +24°C° 0 mm 2 m/S 646 mmHg 44%
08:00 +27°C° 0 mm 2 m/S 647 mmHg 37%
09:00 +28°C° 0 mm 2 m/S 647 mmHg 33%
10:00 +29°C° 0 mm 1 m/S 647 mmHg 28%
11:00 +31°C° 0 mm 1 m/S 647 mmHg 24%
12:00 +31°C° 0 mm 1 m/S 646 mmHg 24%
13:00 +31°C° 0 mm 2 m/S 646 mmHg 23%
14:00 +31°C° 0 mm 2 m/S 645 mmHg 23%
15:00 +31°C° 0 mm 3 m/S 645 mmHg 24%
16:00 +31°C° 0 mm 3 m/S 645 mmHg 25%
17:00 +30°C° 0 mm 4 m/S 644 mmHg 27%
18:00 +28°C° 0 mm 3 m/S 644 mmHg 32%
19:00 +26°C° 0 mm 3 m/S 643 mmHg 37%
20:00 +24°C° 0 mm 3 m/S 643 mmHg 43%
21:00 +22°C° 0 mm 3 m/S 643 mmHg 46%
22:00 +21°C° 0 mm 3 m/S 643 mmHg 50%
23:00 +20°C° 0 mm 3 m/S 642 mmHg 53%

Morgen, 17 Juli, Freitag

Zeit Temperatur Niederschläge Wind Luftdruck Luftfeuchtigkeit
00:00 +20°C° 0 mm 2 m/S 642 mmHg 57%
01:00 +19°C° 0 mm 2 m/S 642 mmHg 61%
02:00 +18°C° 0 mm 2 m/S 642 mmHg 65%
03:00 +18°C° 0 mm 2 m/S 642 mmHg 68%
04:00 +17°C° 0 mm 2 m/S 642 mmHg 72%
05:00 +17°C° 0 mm 2 m/S 642 mmHg 76%
06:00 +19°C° 0 mm 2 m/S 642 mmHg 68%
07:00 +21°C° 0 mm 2 m/S 643 mmHg 59%
08:00 +24°C° 0 mm 2 m/S 644 mmHg 51%
09:00 +26°C° 0 mm 2 m/S 644 mmHg 46%
10:00 +27°C° 0 mm 3 m/S 645 mmHg 41%
11:00 +29°C° 0 mm 3 m/S 645 mmHg 36%
12:00 +29°C° 0 mm 4 m/S 645 mmHg 35%
13:00 +30°C° 0 mm 5 m/S 645 mmHg 35%
14:00 +30°C° 0 mm 5 m/S 644 mmHg 35%
15:00 +29°C° 0 mm 6 m/S 644 mmHg 39%
16:00 +28°C° 0 mm 6 m/S 644 mmHg 43%
17:00 +27°C° 0 mm 6 m/S 644 mmHg 47%
18:00 +24°C° 0 mm 6 m/S 643 mmHg 55%
19:00 +22°C° 0 mm 5 m/S 643 mmHg 63%
20:00 +20°C° 0 mm 4 m/S 643 mmHg 71%
21:00 +19°C° 0 mm 3 m/S 643 mmHg 73%
22:00 +18°C° 0 mm 3 m/S 643 mmHg 75%
23:00 +17°C° 0 mm 3 m/S 643 mmHg 77%

übermorgen, 18 Juli, Samstag

Zeit Temperatur Niederschläge Wind Luftdruck Luftfeuchtigkeit
00:00 +17°C° 0 mm 2 m/S 643 mmHg 78%
01:00 +16°C° 0 mm 2 m/S 643 mmHg 79%
02:00 +16°C° 0 mm 2 m/S 643 mmHg 79%
03:00 +15°C° 0 mm 2 m/S 643 mmHg 79%
04:00 +15°C° 0 mm 1 m/S 643 mmHg 79%
05:00 +15°C° 0 mm 1 m/S 643 mmHg 79%
06:00 +19°C° 0 mm 1 m/S 644 mmHg 69%
07:00 +21°C° 0 mm 1 m/S 644 mmHg 59%
08:00 +23°C° 0 mm 1 m/S 645 mmHg 49%
09:00 +25°C° 0 mm 2 m/S 645 mmHg 42%
10:00 +28°C° 0 mm 2 m/S 646 mmHg 35%
11:00 +30°C° 0 mm 2 m/S 646 mmHg 29%
12:00 +30°C° 0 mm 3 m/S 646 mmHg 27%
13:00 +31°C° 0 mm 3 m/S 646 mmHg 25%
14:00 +33°C° 0 mm 3 m/S 646 mmHg 24%
15:00 +32°C° 0 mm 4 m/S 646 mmHg 25%
16:00 +32°C° 0 mm 5 m/S 645 mmHg 27%
17:00 +30°C° 0 mm 6 m/S 645 mmHg 29%
18:00 +28°C° 0 mm 5 m/S 645 mmHg 35%
19:00 +25°C° 0 mm 4 m/S 645 mmHg 41%
20:00 +22°C° 0 mm 3 m/S 644 mmHg 47%
21:00 +21°C° 0 mm 3 m/S 644 mmHg 48%
22:00 +21°C° 0 mm 2 m/S 645 mmHg 50%
23:00 +20°C° 0 mm 2 m/S 645 mmHg 52%

19 Juli, Sonntag

Zeit Temperatur Niederschläge Wind Luftdruck Luftfeuchtigkeit
00:00 +20°C° 0 mm 2 m/S 645 mmHg 52%
01:00 +20°C° 0 mm 1 m/S 644 mmHg 53%
02:00 +20°C° 0 mm 1 m/S 644 mmHg 53%
03:00 +20°C° 0 mm 1 m/S 644 mmHg 53%
04:00 +20°C° 0 mm 1 m/S 644 mmHg 54%
05:00 +20°C° 0 mm 1 m/S 644 mmHg 54%
06:00 +23°C° 0 mm 1 m/S 645 mmHg 45%
07:00 +26°C° 0 mm 1 m/S 646 mmHg 37%
08:00 +29°C° 0 mm 1 m/S 647 mmHg 29%
09:00 +30°C° 0 mm 2 m/S 647 mmHg 26%
10:00 +32°C° 0 mm 2 m/S 647 mmHg 23%
11:00 +34°C° 0 mm 2 m/S 648 mmHg 20%
12:00 +35°C° 0 mm 2 m/S 648 mmHg 19%
13:00 +36°C° 0 mm 2 m/S 648 mmHg 18%
14:00 +36°C° 0 mm 2 m/S 647 mmHg 17%
15:00 +36°C° 0 mm 3 m/S 647 mmHg 18%
16:00 +36°C° 0 mm 4 m/S 647 mmHg 19%
17:00 +35°C° 0 mm 5 m/S 647 mmHg 20%
18:00 +32°C° 0 mm 5 m/S 646 mmHg 25%
19:00 +29°C° 0 mm 4 m/S 646 mmHg 31%
20:00 +26°C° 0 mm 4 m/S 646 mmHg 36%
21:00 +25°C° 0 mm 3 m/S 646 mmHg 37%
22:00 +25°C° 0 mm 3 m/S 646 mmHg 38%
23:00 +24°C° 0 mm 2 m/S 646 mmHg 40%

20 Juli, Montag

Zeit Temperatur Niederschläge Wind Luftdruck Luftfeuchtigkeit
00:00 +23°C° 0 mm 2 m/S 645 mmHg 41%
01:00 +23°C° 0 mm 2 m/S 645 mmHg 42%
02:00 +22°C° 0 mm 1 m/S 645 mmHg 44%
03:00 +22°C° 0 mm 1 m/S 644 mmHg 46%
04:00 +22°C° 0 mm 1 m/S 644 mmHg 47%
05:00 +21°C° 0 mm 1 m/S 644 mmHg 49%
06:00 +24°C° 0 mm 1 m/S 645 mmHg 41%
07:00 +27°C° 0 mm 1 m/S 646 mmHg 34%
08:00 +30°C° 0 mm 1 m/S 647 mmHg 27%
09:00 +31°C° 0 mm 2 m/S 647 mmHg 24%
10:00 +34°C° 0 mm 2 m/S 647 mmHg 21%
11:00 +35°C° 0 mm 3 m/S 647 mmHg 18%
12:00 +36°C° 0 mm 3 m/S 647 mmHg 17%
13:00 +37°C° 0 mm 4 m/S 647 mmHg 15%
14:00 +37°C° 0 mm 4 m/S 647 mmHg 13%
15:00 +37°C° 0 mm 5 m/S 646 mmHg 13%
16:00 +36°C° 0 mm 5 m/S 646 mmHg 13%
17:00 +36°C° 0 mm 5 m/S 646 mmHg 13%
18:00 +33°C° 0 mm 4 m/S 646 mmHg 18%
19:00 +29°C° 0 mm 3 m/S 645 mmHg 22%
20:00 +26°C° 0 mm 3 m/S 645 mmHg 27%
21:00 +25°C° 0 mm 2 m/S 645 mmHg 33%
22:00 +24°C° 0 mm 2 m/S 645 mmHg 38%
23:00 +23°C° 0 mm 1 m/S 645 mmHg 44%

21 Juli, Dienstag

Zeit Temperatur Niederschläge Wind Luftdruck Luftfeuchtigkeit
00:00 +22°C° 0 mm 1 m/S 644 mmHg 51%
01:00 +21°C° 0 mm 1 m/S 644 mmHg 58%
02:00 +20°C° 0 mm 1 m/S 644 mmHg 65%
03:00 +20°C° 0 mm 1 m/S 644 mmHg 70%
04:00 +19°C° 0 mm 2 m/S 644 mmHg 75%
05:00 +18°C° 0 mm 2 m/S 644 mmHg 80%
06:00 +20°C° 0 mm 2 m/S 645 mmHg 72%
07:00 +23°C° 0 mm 2 m/S 645 mmHg 65%
08:00 +25°C° 0 mm 2 m/S 646 mmHg 57%
09:00 +26°C° 0 mm 3 m/S 646 mmHg 51%
10:00 +28°C° 0 mm 4 m/S 646 mmHg 45%
11:00 +30°C° 0 mm 4 m/S 647 mmHg 38%
12:00 +30°C° 0 mm 5 m/S 646 mmHg 37%
13:00 +30°C° 0 mm 6 m/S 646 mmHg 36%
14:00 +32°C° 0 mm 6 m/S 646 mmHg 35%
15:00 +29°C° 0 mm 7 m/S 646 mmHg 40%
16:00 +28°C° 0 mm 7 m/S 645 mmHg 45%
17:00 +27°C° 0 mm 7 m/S 645 mmHg 51%
18:00 +24°C° 0 mm 6 m/S 645 mmHg 58%
19:00 +22°C° 0 mm 5 m/S 645 mmHg 65%
20:00 +20°C° 0 mm 4 m/S 645 mmHg 72%
21:00 +19°C° 0 mm 4 m/S 645 mmHg 73%
22:00 +18°C° 0 mm 3 m/S 645 mmHg 74%
23:00 +17°C° 0 mm 2 m/S 645 mmHg 75%
Mehr zeigen